Weather History for Greenville, NC

Change the Weather History Date:

Wednesday, October 19, 2011

  Actual Average Record
Temperature  
Mean Temperature 67 °F -  
Max Temperature 77 °F 72 °F 89 °F (1938)
Min Temperature 57 °F 47 °F 33 °F (1970)
Cooling Degree Days 2    
Growing Degree Days 17 (Base 50)    
Moisture  
Dew Point 64 °F    
Average Humidity 99    
Maximum Humidity 100    
Minimum Humidity 89    
Precipitation  
Precipitation 0.49 in - - ()
Sea Level Pressure  
Sea Level Pressure 29.50 in    
Wind  
Wind Speed 5 mph (NE)    
Max Wind Speed 9 mph    
Max Gust Speed -    
Visibility 8 miles    
Events Rain    
Averages and records for this station are not official NWS values.
T = Trace of Precipitation, MM = Missing Value Source: NWS Daily Summary

Daily Weather History Graph

Daily Weather History Graph

Search for Another Location

Airport:

Trip Planner

Search our weather history database for the weather conditions in past years. The results will help you decide how hot, cold, wet, or windy it might be!

Date:

Astronomy

Oct. 19, 2011 Rise Set
Actual Time 7:19 AM EDT 6:29 PM EDT
Civil Twilight 6:53 AM EDT 6:55 PM EDT
Nautical Twilight 6:23 AM EDT 7:24 PM EDT
Astronomical Twilight 5:54 AM EDT 7:54 PM EDT
Moon No Moon Rise 1:43 PM EDT (10/19)
Length of Visible Light 12h 01m
Length of Day
11h 10m
Waning Gibbous, 55% of the Moon is Illuminated
Oct 19
Waning Gibbous
Oct 19
Last Quarter
Oct 26
New
Nov 2
First Quarter
Nov 10
Full

Hourly Weather History & Observations

Time (EDT) Temp. Dew Point Humidity Pressure Visibility Wind Dir Wind Speed Gust Speed Precip Events Conditions
12:15 AM 66.2 °F 66.2 °F 100% 29.68 in 4.0 mi ESE 3.5 mph - 0.06 in Rain Rain
12:35 AM 66.2 °F 66.2 °F 100% 29.66 in 4.0 mi East 5.8 mph - 0.15 in Rain Heavy Rain
12:55 AM 64.4 °F 64.4 °F 100% 29.63 in 4.0 mi East 4.6 mph - 0.25 in Rain Rain
1:35 AM 64.4 °F 64.4 °F 100% 29.60 in 5.0 mi East 8.1 mph - 0.10 in Rain Rain
1:55 AM 64.4 °F 64.4 °F 100% 29.57 in 4.0 mi East 5.8 mph - 0.17 in Rain Rain
2:15 AM 64.4 °F 64.4 °F 100% 29.56 in 7.0 mi ESE 9.2 mph - 0.01 in   Light Drizzle
2:35 AM 64.4 °F 64.4 °F 100% 29.56 in 5.0 mi SE 5.8 mph - 0.02 in Rain Light Rain
2:55 AM 66.2 °F 66.2 °F 100% 29.56 in 7.0 mi SW 9.2 mph - 0.02 in   Overcast
3:15 AM 66.2 °F 66.2 °F 100% 29.55 in 10.0 mi WSW 3.5 mph - N/A   Overcast
3:35 AM 64.4 °F 64.4 °F 100% 29.55 in 4.0 mi NW 9.2 mph - 0.03 in Rain Rain
3:55 AM 62.6 °F 62.6 °F 100% 29.55 in 3.0 mi NW 4.6 mph - 0.04 in   Drizzle
4:15 AM 62.6 °F 62.6 °F 100% 29.55 in 5.0 mi NW 3.5 mph - N/A   Overcast
4:35 AM 60.8 °F 60.8 °F 100% 29.56 in 7.0 mi WNW 5.8 mph - 0.01 in   Overcast
4:55 AM 60.8 °F 60.8 °F 100% 29.56 in 7.0 mi NNW 5.8 mph - 0.01 in   Overcast
5:15 AM 59.0 °F 59.0 °F 100% 29.55 in 10.0 mi NW 4.6 mph - N/A   Overcast
5:35 AM 59.0 °F 59.0 °F 100% 29.57 in 10.0 mi NW 6.9 mph - N/A   Overcast
5:55 AM 59.0 °F 59.0 °F 100% 29.57 in 10.0 mi NW 3.5 mph - N/A   Overcast
6:15 AM 59.0 °F 59.0 °F 100% 29.56 in 10.0 mi NNW 4.6 mph - N/A   Overcast
6:35 AM 59.0 °F 59.0 °F 100% 29.56 in 10.0 mi NNW 3.5 mph - N/A   Overcast
6:55 AM 59.0 °F 59.0 °F 100% 29.55 in 10.0 mi North 5.8 mph - N/A   Overcast
7:15 AM 57.2 °F 57.2 °F 100% 29.55 in 10.0 mi NNW 3.5 mph - N/A   Overcast
7:35 AM 57.2 °F 57.2 °F 100% 29.55 in 10.0 mi Calm Calm - N/A   Overcast
7:55 AM 57.2 °F 57.2 °F 100% 29.55 in 10.0 mi Calm Calm - N/A   Overcast
8:15 AM 57.2 °F 57.2 °F 100% 29.55 in 10.0 mi NNE 3.5 mph - N/A   Overcast
8:35 AM 59.0 °F 59.0 °F 100% 29.54 in 7.0 mi ENE 3.5 mph - N/A   Overcast
8:55 AM 59.0 °F 59.0 °F 100% 29.54 in 7.0 mi NNE 3.5 mph - N/A   Overcast
9:15 AM 59.0 °F 59.0 °F 100% 29.53 in 10.0 mi ENE 3.5 mph - N/A   Overcast
9:35 AM 59.0 °F 59.0 °F 100% 29.52 in 7.0 mi Calm Calm - N/A Rain Light Rain
9:55 AM 59.0 °F 59.0 °F 100% 29.51 in 10.0 mi ENE 4.6 mph - N/A   Overcast
10:15 AM 60.8 °F 60.8 °F 100% 29.49 in 7.0 mi ENE 4.6 mph - N/A   Overcast
10:35 AM 60.8 °F 60.8 °F 100% 29.49 in 10.0 mi ENE 3.5 mph - N/A   Overcast
10:55 AM 60.8 °F 60.8 °F 100% 29.48 in 10.0 mi ENE 3.5 mph - N/A   Overcast
11:15 AM 62.6 °F 62.6 °F 100% 29.47 in 10.0 mi Calm Calm - N/A   Overcast
11:35 AM 62.6 °F 62.6 °F 100% 29.46 in 10.0 mi ENE 4.6 mph - N/A   Overcast
11:55 AM 64.4 °F 64.4 °F 100% 29.46 in 10.0 mi NNE 4.6 mph - N/A   Overcast
12:15 PM 64.4 °F 64.4 °F 100% 29.43 in 10.0 mi NE 4.6 mph - N/A   Overcast
12:35 PM 66.2 °F 66.2 °F 100% 29.42 in 10.0 mi ENE 3.5 mph - N/A   Overcast
12:55 PM 68.0 °F 68.0 °F 100% 29.42 in 2.5 mi East 4.6 mph - N/A   Overcast
1:15 PM 68.0 °F 68.0 °F 100% 29.41 in 2.0 mi Calm Calm - N/A   Overcast
1:35 PM 68.0 °F 68.0 °F 100% 29.40 in 2.5 mi Calm Calm - N/A   Overcast
1:55 PM 69.8 °F 69.8 °F 100% 29.38 in 2.5 mi Calm Calm - N/A   Overcast
2:15 PM 69.8 °F 69.8 °F 100% 29.37 in 7.0 mi Calm Calm - N/A   Overcast
2:35 PM 71.6 °F 71.6 °F 100% 29.37 in 10.0 mi SSE 3.5 mph - N/A   Overcast
2:55 PM 75.2 °F 73.4 °F 94% 29.36 in 10.0 mi SSE 6.9 mph - N/A   Mostly Cloudy
3:15 PM 75.2 °F 73.4 °F 94% 29.36 in 10.0 mi South 5.8 mph - N/A   Mostly Cloudy
4:15 PM 77.0 °F 73.4 °F 89% 29.34 in 10.0 mi SW 5.8 mph - N/A   Scattered Clouds
4:35 PM 77.0 °F 73.4 °F 89% 29.34 in 10.0 mi SSW 8.1 mph - N/A   Scattered Clouds
4:55 PM 77.0 °F 73.4 °F 89% 29.35 in 10.0 mi SW 8.1 mph - N/A   Mostly Cloudy
5:15 PM 77.0 °F 73.4 °F 89% 29.35 in 10.0 mi SSW 6.9 mph - N/A Rain Light Rain
5:35 PM 73.4 °F 73.4 °F 100% 29.36 in 10.0 mi South 5.8 mph - N/A   Scattered Clouds
5:55 PM 73.4 °F 73.4 °F 100% 29.36 in 10.0 mi SW 8.1 mph - N/A Rain Light Rain
6:15 PM 73.4 °F 71.6 °F 94% 29.37 in 10.0 mi SW 11.5 mph - N/A   Mostly Cloudy
6:35 PM 71.6 °F 71.6 °F 100% 29.37 in 10.0 mi SW 6.9 mph - N/A   Scattered Clouds
6:55 PM 71.6 °F 71.6 °F 100% 29.38 in 10.0 mi SSW 5.8 mph - N/A   Scattered Clouds
7:15 PM 71.6 °F 71.6 °F 100% 29.39 in 10.0 mi South 5.8 mph - N/A   Mostly Cloudy
7:35 PM 71.6 °F 71.6 °F 100% 29.38 in 10.0 mi SSE 11.5 mph 16.1 mph N/A   Scattered Clouds
7:55 PM 71.6 °F 71.6 °F 100% 29.39 in 10.0 mi South 17.3 mph 24.2 mph N/A   Scattered Clouds
8:15 PM 71.6 °F 71.6 °F 100% 29.39 in 10.0 mi South 16.1 mph 21.9 mph N/A   Scattered Clouds
8:55 PM 71.6 °F 69.8 °F 94% 29.42 in 10.0 mi SSW 15.0 mph 19.6 mph N/A   Scattered Clouds
9:15 PM 69.8 °F 69.8 °F 100% 29.42 in 10.0 mi SSW 15.0 mph 23.0 mph N/A   Scattered Clouds
9:35 PM 69.8 °F 68.0 °F 94% 29.42 in 10.0 mi SSW 16.1 mph 25.3 mph N/A   Scattered Clouds
9:55 PM 69.8 °F 68.0 °F 94% 29.42 in 10.0 mi SSW 16.1 mph 20.7 mph N/A   Scattered Clouds
10:15 PM 69.8 °F 68.0 °F 94% 29.42 in 10.0 mi SSW 18.4 mph 24.2 mph N/A   Scattered Clouds
10:35 PM 64.4 °F 62.6 °F 94% 29.47 in 10.0 mi WSW 17.3 mph 36.8 mph N/A   Scattered Clouds
10:55 PM 62.6 °F 59.0 °F 88% 29.49 in 10.0 mi WSW 26.5 mph 32.2 mph N/A   Mostly Cloudy
11:15 PM 59.0 °F 55.4 °F 88% 29.50 in 10.0 mi WSW 19.6 mph 26.5 mph N/A   Scattered Clouds
11:35 PM 59.0 °F 53.6 °F 82% 29.52 in 10.0 mi WSW 17.3 mph 27.6 mph N/A   Scattered Clouds
11:55 PM 57.2 °F 51.8 °F 82% 29.53 in 10.0 mi WSW 12.7 mph 18.4 mph N/A   Mostly Cloudy